[[[{"header":{"parameterUnit":"kt","parameterCategory":2,"dx":1,"dy":1,"la1":30.253999710083008,"la2":30.299108505249023,"lo1":-89.0895004272461,"lo2":-89.04439544677734,"nx":28,"ny":28,"refTime":"2022-09-24T21:00:00:Z","depth":"0","parameterNumber":2,"parameterNumberName":"U-component_of_CURRENTS"},"data":[0.5242,0.5171,0.5178,0.5035,0.4999,0.4922,0.4941,0.5008,0.5206,0.5492,0.5783,0.6139,0.6769,0.7271,0.7424,0.7396,0.679,0.6639,0.6448,0.7167,0.7203,0.7237,0.6984,0.687,0.6868,0.5258,0.5244,0.5233,0.5314,0.5332,0.5311,0.5235,0.5177,0.5236,0.5336,0.5363,0.5525,0.5872,0.6189,0.681,0.7366,0.7886,0.8365,0.825,0.7949,0.8034,0.7352,0.7224,0.8348,0.8142,0.8274,0.8274,0.8274,0.8275,0.8275,0.8275,0.5473,0.5456,0.5415,0.5353,0.5368,0.5385,0.5418,0.5603,0.5798,0.6073,0.6426,0.6821,0.7505,0.8427,0.8669,0.8855,0.8608,0.8697,0.8414,0.805,0.7661,0.8786,0.9174,0.9175,0.9177,0.9178,0.9179,0,0.5556,0.554,0.5524,0.5468,0.5488,0.5545,0.5686,0.576,0.6085,0.628,0.6587,0.6882,0.759,0.8038,0.8704,0.8956,0.8506,0.9031,0.875,0.799,0.7488,0.7298,0.8367,0.8758,0.8757,0.8757,0.8756,0.8756,0.5651,0.5615,0.5611,0.5589,0.5608,0.5707,0.579,0.6045,0.6172,0.6539,0.6606,0.704,0.7344,0.8048,0.8403,0.8928,0.8511,0.9001,0.8722,0.8416,0.8135,0.7706,0.7508,0.8747,0.8748,0.8749,0.875,0,0.5704,0.5703,0.568,0.5747,0.5776,0.5821,0.6036,0.6137,0.6381,0.6572,0.6657,0.6955,0.7349,0.7674,0.8106,0.8198,0.8323,0.8664,0.8486,0.851,0.8357,0.8065,0.7934,0.7731,0.9006,0.901,0.9014,0,0.5783,0.5781,0.5799,0.5796,0.5833,0.5997,0.612,0.6268,0.6496,0.661,0.6827,0.6941,0.7199,0.7475,0.7673,0.8023,0.8066,0.8123,0.8181,0.8009,0.7996,0.7775,0.7473,0.8117,0.8112,0.8108,0.8105,0,0.5823,0.5873,0.5858,0.5898,0.6021,0.6077,0.6194,0.6392,0.6476,0.6727,0.6823,0.6995,0.7084,0.7321,0.7518,0.7413,0.7925,0.7796,0.8018,0.8025,0.7955,0.7943,0.8011,0.8099,0.8098,0.8097,0.8095,0,0.5903,0.5908,0.5912,0.6018,0.6044,0.6117,0.6306,0.6403,0.6581,0.6657,0.6755,0.6797,0.6944,0.6889,0.7201,0.7064,0.7243,0.7351,0.7373,0.7373,0.7317,0.7644,0.7905,0.762,0.7603,0.7598,0.7593,0,0.5907,0.5917,0.6007,0.6064,0.6077,0.6212,0.6304,0.6401,0.6494,0.6601,0.6617,0.6674,0.66,0.6642,0.6752,0.6866,0.7054,0.681,0.7187,0.72,0.7256,0.75,0.7358,0.7812,0.7521,0.7528,0.7534,0,0.5934,0.5999,0.601,0.6035,0.6176,0.6202,0.6306,0.6378,0.6441,0.648,0.6563,0.654,0.6555,0.6538,0.6521,0.6643,0.6941,0.6655,0.6659,0.6911,0.7363,0.7398,0.7452,0.694,0.6947,0.6952,0.7477,0,0.5984,0.6019,0.6023,0.6117,0.6171,0.6192,0.6268,0.6318,0.6354,0.6375,0.6414,0.6384,0.6391,0.6403,0.6355,0.6502,0.6553,0.6486,0.6479,0.6577,0.679,0.6836,0.6258,0.6256,0.6253,0.6252,0,0,0.5988,0.603,0.6087,0.6118,0.6158,0.6206,0.6229,0.6251,0.6259,0.6269,0.624,0.626,0.6234,0.6261,0.6261,0.6248,0.637,0.6285,0.6484,0.651,0.6534,0.6744,0.679,0.6247,0.6247,0.6246,0.6245,0,0.6013,0.6075,0.609,0.6129,0.6169,0.6193,0.6207,0.6219,0.6202,0.6236,0.6173,0.6174,0.6188,0.6159,0.6147,0.6212,0.6314,0.6224,0.6313,0.646,0.6489,0.6515,0.6727,0.677,0.624,0.624,0.624,0,0.6044,0.609,0.611,0.6159,0.616,0.6189,0.6146,0.6145,0.6169,0.6096,0.6109,0.6084,0.6037,0.606,0.6069,0.605,0.6274,0.6136,0.6145,0.615,0.6301,0.6331,0.6359,0.6021,0.6021,0.6021,0,0,0.6062,0.6106,0.614,0.6163,0.6169,0.6168,0.6167,0.6142,0.6107,0.6077,0.6067,0.6037,0.6022,0.6024,0.6005,0.6066,0.614,0.6117,0.6127,0.6136,0.6146,0.6297,0.6325,0.6021,0.6021,0.6021,0,0,0.6035,0.6095,0.6123,0.6144,0.6159,0.6133,0.6116,0.6114,0.6063,0.6042,0.6001,0.5988,0.6,0.5978,0.5975,0.6034,0.5978,0.598,0.6087,0.6099,0.6109,0.6122,0.595,0,0,0,0,0,0.6099,0.611,0.6138,0.6148,0.6163,0.6163,0.6158,0.609,0.6069,0.605,0.599,0.5993,0.5931,0.5928,0.5939,0.6024,0.6021,0.6021,0.6021,0.617,0.6182,0.6193,0,0,0,0,0,0,0.6102,0.6114,0.6137,0.6126,0.613,0.6161,0.6089,0.607,0.6063,0.6045,0.6002,0.5992,0.5948,0.5925,0.5934,0.6016,0.5947,0.6021,0.6021,0.6021,0.6174,0.6185,0.6194,0,0,0,0,0,0.6105,0.6114,0.6156,0.6123,0.6126,0.6064,0.6083,0.6067,0.6041,0.6013,0.5998,0.5988,0.5952,0.5954,0.593,0.6012,0.594,0.5944,0.6021,0.6021,0.6021,0.6179,0,0,0,0,0,0,0.6107,0.6081,0.6155,0.6154,0.6079,0.6056,0.6048,0.6064,0.6006,0.5995,0.5998,0.5985,0.5956,0.5957,0.5959,0.6011,0.5935,0.5939,0.5941,0.6021,0.6021,0.6021,0,0,0,0,0,0,0.6077,0.6081,0.6154,0.6102,0.6093,0.6049,0.6042,0.6096,0.6007,0.5992,0.5981,0.5994,0.5966,0.596,0.5961,0.6046,0.5931,0.5935,0.5937,0.5938,0.6021,0.6021,0,0,0,0,0,0,0.6077,0.608,0.6101,0.6095,0.6087,0.6057,0.6094,0.6113,0.596,0.5995,0.5946,0.594,0.5972,0.5971,0.5963,0.6048,0.6046,0.5931,0.5934,0.5935,0.5936,0,0,0,0,0,0,0,0.6077,0.6075,0.6176,0.6088,0.6081,0.6144,0.6142,0.614,0.5959,0.5953,0.5948,0.5943,0.5913,0.5916,0.592,0.6049,0,0,0.5931,0.5933,0,0,0,0,0,0,0,0,0.6072,0.6074,0.6176,0.6177,0.6177,0.6143,0.6142,0.6141,0.5958,0.5953,0.5949,0.5945,0.5914,0.5916,0.5919,0,0,0,0,0,0,0,0,0,0,0,0,0,0,0,0.6176,0.6177,0,0.6143,0.6142,0.6141,0.5957,0.5953,0.595,0.5947,0.5914,0.5917,0.5919,0,0,0,0,0,0,0,0,0,0,0,0,0,0,0,0,0,0,0,0,0,0,0,0,0,0,0,0,0,0,0,0,0,0,0,0,0,0,0,0,0,0,0,0,0,0,0,0,0,0,0,0,0,0,0,0,0,0,0,0,0,0,0,0,0,0,0,0,0]}],[{"header":{"parameterUnit":"kt","parameterCategory":2,"dx":1,"dy":1,"la1":30.253999710083008,"la2":30.299108505249023,"lo1":-89.0895004272461,"lo2":-89.04439544677734,"nx":28,"ny":28,"refTime":"2022-09-24T21:00:00:Z","depth":"0","parameterNumber":3,"parameterNumberName":"V-component_of_CURRENTS"},"data":[0.0455,0.0618,0.07,0.0986,0.1125,0.1401,0.1572,0.1946,0.2298,0.2922,0.3282,0.3475,0.2925,0.0719,-0.0824,-0.1197,-0.1629,-0.1707,-0.1932,-0.1611,-0.1575,-0.1542,-0.1629,-0.1893,-0.1895,-0.2418,-0.2425,-0.243,0.0398,0.0504,0.0648,0.0853,0.1011,0.1066,0.1307,0.1518,0.1862,0.2244,0.2509,0.2606,0.2011,0.1281,0.015,-0.0545,-0.0785,-0.0919,-0.1091,-0.1135,-0.052,-0.0562,-0.0603,-0.0603,-0.0603,-0.0602,-0.0602,-0.0602,0.0307,0.0402,0.0545,0.07,0.0834,0.1012,0.1153,0.1313,0.1526,0.1854,0.1827,0.2153,0.1696,0.12,0.0729,-0.0094,-0.0105,-0.0366,-0.0556,-0.0619,-0.0746,-0.0043,0.0011,0.001,0.001,0.0009,0.0009,0,0.0257,0.0308,0.0418,0.0596,0.0701,0.0832,0.0944,0.1032,0.1104,0.1254,0.1438,0.1531,0.1325,0.1119,0.0727,0.0464,-0.0162,0.0039,-0.0294,-0.0598,-0.0691,-0.0819,-0.0161,-0.0047,-0.0048,-0.0049,-0.005,-0.005,0.0175,0.0254,0.0416,0.0501,0.0556,0.0664,0.0736,0.0763,0.0828,0.0957,0.1041,0.1044,0.111,0.0889,0.0514,0.0251,-0.0063,0.003,-0.0138,-0.0439,-0.0682,-0.0783,-0.0859,-0.006,-0.0059,-0.0058,-0.0057,0,0.0146,0.0215,0.0337,0.0447,0.0487,0.0558,0.0632,0.0677,0.0698,0.0808,0.0833,0.0787,0.0745,0.0544,0.0363,0.0131,-0.0148,-0.0082,-0.0008,-0.0047,-0.0476,-0.0664,-0.0774,-0.0864,-0.0174,-0.0173,-0.0173,0,0.0113,0.0188,0.0286,0.034,0.0456,0.044,0.0517,0.0503,0.0527,0.0601,0.0497,0.0562,0.0337,0.0286,0.0089,-0.005,-0.0019,-0.0265,-0.031,-0.0282,-0.0283,-0.0564,-0.0757,-0.0289,-0.0289,-0.029,-0.029,0,0.0054,0.0134,0.0241,0.026,0.0312,0.0336,0.0346,0.0315,0.0331,0.0334,0.0375,0.029,0.0279,0.0148,-0.004,-0.0116,-0.0106,-0.0247,-0.0341,-0.0342,-0.0315,-0.0318,-0.0498,-0.0291,-0.0291,-0.0291,-0.0292,0,-0.0008,0.0045,0.0154,0.0204,0.0213,0.0234,0.0241,0.0242,0.021,0.0184,0.0151,0.0067,0.0036,-0.0096,-0.0194,-0.0214,-0.0328,-0.04,-0.0401,-0.0418,-0.0533,-0.0409,-0.0325,-0.0636,-0.0457,-0.0459,-0.046,0,-0.0039,0.0023,-0.0017,0.0055,0.0097,0.0034,0.0044,0.0015,-0.0033,-0.0021,-0.0116,-0.0144,-0.0295,-0.0318,-0.0353,-0.0459,-0.046,-0.0502,-0.055,-0.055,-0.0529,-0.0459,-0.0416,-0.0348,-0.0476,-0.0475,-0.0473,0,-0.011,-0.0111,-0.0115,-0.0084,-0.0126,-0.0122,-0.0132,-0.0137,-0.0121,-0.0195,-0.0143,-0.0312,-0.036,-0.0415,-0.0519,-0.0522,-0.0493,-0.0602,-0.0605,-0.054,-0.0479,-0.0483,-0.0472,-0.0561,-0.0559,-0.0558,-0.0487,0,-0.0153,-0.015,-0.0153,-0.0184,-0.0194,-0.0176,-0.0223,-0.025,-0.0286,-0.0307,-0.0361,-0.0486,-0.0546,-0.0607,-0.0686,-0.068,-0.0697,-0.0767,-0.0756,-0.0723,-0.0703,-0.0692,-0.0845,-0.0847,-0.0849,-0.085,0,0,-0.0196,-0.0205,-0.0288,-0.0293,-0.0281,-0.0345,-0.0305,-0.0347,-0.0393,-0.0398,-0.0446,-0.0576,-0.0681,-0.0722,-0.074,-0.0815,-0.0813,-0.0772,-0.0762,-0.0752,-0.0742,-0.0719,-0.0707,-0.0852,-0.0853,-0.0853,-0.0854,0,-0.0229,-0.0287,-0.0294,-0.031,-0.0343,-0.0362,-0.0357,-0.0384,-0.0406,-0.0448,-0.0524,-0.0593,-0.0712,-0.0764,-0.0811,-0.0832,-0.0854,-0.088,-0.0763,-0.0775,-0.0763,-0.0752,-0.0727,-0.0715,-0.0857,-0.0857,-0.0857,0,-0.0267,-0.0313,-0.0317,-0.0362,-0.0381,-0.0371,-0.0405,-0.0417,-0.0407,-0.0507,-0.0535,-0.0629,-0.073,-0.0797,-0.0834,-0.0833,-0.0861,-0.0897,-0.0892,-0.0838,-0.0849,-0.0836,-0.0825,-0.0958,-0.0958,-0.0958,0,0,-0.0297,-0.0331,-0.0353,-0.0363,-0.0374,-0.0397,-0.0408,-0.042,-0.0465,-0.0489,-0.0549,-0.0628,-0.0712,-0.0746,-0.0834,-0.0887,-0.0883,-0.0903,-0.0899,-0.0894,-0.0839,-0.0848,-0.0837,-0.0957,-0.0957,-0.0957,0,0,-0.0293,-0.0338,-0.0351,-0.037,-0.0383,-0.0408,-0.0422,-0.043,-0.049,-0.0502,-0.0578,-0.0602,-0.0684,-0.0735,-0.0713,-0.0818,-0.0846,-0.0852,-0.0762,-0.0757,-0.0753,-0.0662,-0.0756,0,0,0,0,0,-0.032,-0.0332,-0.0343,-0.0348,-0.039,-0.0402,-0.041,-0.0436,-0.0441,-0.0451,-0.0522,-0.0557,-0.074,-0.0723,-0.0747,-0.0748,-0.0945,-0.0947,-0.0949,-0.085,-0.0844,-0.084,0,0,0,0,0,0,-0.0322,-0.0328,-0.0342,-0.0366,-0.0375,-0.0403,-0.0421,-0.043,-0.0441,-0.0444,-0.0542,-0.056,-0.062,-0.0715,-0.0736,-0.0735,-0.075,-0.0946,-0.0948,-0.0949,-0.0848,-0.0843,-0.0839,0,0,0,0,0,-0.0323,-0.0328,-0.0388,-0.0367,-0.0375,-0.0407,-0.0421,-0.0429,-0.0445,-0.0529,-0.0546,-0.046,-0.0618,-0.0641,-0.0728,-0.0724,-0.0736,-0.0743,-0.0947,-0.0949,-0.095,-0.0846,0,0,0,0,0,0,-0.0324,-0.0348,-0.039,-0.0394,-0.0362,-0.0407,-0.0415,-0.0427,-0.0532,-0.0545,-0.0453,-0.0455,-0.0617,-0.0635,-0.0652,-0.0715,-0.0724,-0.0732,-0.0737,-0.0948,-0.0949,-0.095,0,0,0,0,0,0,-0.0345,-0.0351,-0.0392,-0.0385,-0.0388,-0.0407,-0.0413,-0.0492,-0.0536,-0.0453,-0.0455,-0.0453,-0.061,-0.0631,-0.0645,-0.0764,-0.0716,-0.0723,-0.0728,-0.0731,-0.0949,-0.095,0,0,0,0,0,0,-0.0348,-0.0354,-0.0385,-0.0387,-0.039,-0.0438,-0.048,-0.0538,-0.0477,-0.0451,-0.0476,-0.0476,-0.0607,-0.062,-0.0639,-0.0753,-0.0762,-0.0716,-0.0721,-0.0725,-0.0727,0,0,0,0,0,0,0,-0.0351,-0.0307,-0.0361,-0.0389,-0.0392,-0.0425,-0.0426,-0.0428,-0.0477,-0.0477,-0.0476,-0.0476,-0.0674,-0.0682,-0.069,-0.0743,0,0,-0.0715,-0.0719,0,0,0,0,0,0,0,0,-0.0305,-0.0307,-0.0361,-0.0361,-0.0361,-0.0425,-0.0426,-0.0428,-0.0477,-0.0477,-0.0476,-0.0476,-0.0676,-0.0683,-0.0689,0,0,0,0,0,0,0,0,0,0,0,0,0,0,0,-0.0361,-0.0361,0,-0.0425,-0.0426,-0.0428,-0.0477,-0.0477,-0.0476,-0.0476,-0.0678,-0.0684,-0.0689,0,0,0,0,0,0,0,0,0,0,0,0,0,0,0,0,0,0,0,0,0,0,0,0,0,0,0,0,0,0,0,0,0,0,0,0,0,0,0,0,0,0,0,0,0,0,0,0,0,0,0,0,0,0,0,0,0,0,0,0,0,0,0,0,0,0,0,0,0]}]],[[{"header":{"parameterUnit":"kt","parameterCategory":2,"dx":1,"dy":1,"la1":30.253999710083008,"la2":30.299108505249023,"lo1":-89.0895004272461,"lo2":-89.04439544677734,"nx":28,"ny":28,"refTime":"2022-09-24T21:00:00:Z","depth":"2","parameterNumber":2,"parameterNumberName":"U-component_of_CURRENTS"},"data":[0.152,0.1449,0.1417,0.1676,0.1917,0.2116,0.2241,0.2278,0.2376,0.248,0.2617,0.2712,0.2795,0.2403,0.2343,0.2383,0.2483,0.2303,0.3143,0.2827,0.2861,0.2908,0.2616,0,0,0,0,0,0.1616,0.151,0.1546,0.1676,0.192,0.2092,0.2177,0.2184,0.2463,0.2743,0.3086,0.2778,0.283,0.3016,0.2777,0.2706,0.248,0.2858,0.2559,0.2599,0.2634,0.2417,0.2248,0.2246,0.2244,0.2243,0,0,0.1527,0.1528,0.166,0.1815,0.197,0.2104,0.2126,0.2245,0.2453,0.2826,0.3111,0.3423,0.3383,0.3371,0.3357,0.335,0.3499,0.342,0.3422,0.3431,0.3267,0.314,0.3315,0.332,0.3324,0.3328,0.3331,0,0.149,0.1676,0.1712,0.1914,0.2015,0.2048,0.2127,0.2225,0.2417,0.2684,0.3128,0.3416,0.3738,0.3734,0.3847,0.3798,0.3709,0.3697,0.4157,0.3068,0.2928,0.2843,0.2823,0.3095,0.3098,0.3101,0.3104,0.3105,0.1284,0.1504,0.174,0.1826,0.1907,0.2034,0.2073,0.2168,0.2276,0.2711,0.2855,0.3351,0.3659,0.403,0.3891,0.3983,0.4162,0.3776,0.3498,0.3744,0.367,0.3621,0.3576,0.3148,0.3142,0.3138,0.3134,0,0.1214,0.1314,0.1557,0.1727,0.1762,0.1901,0.1948,0.2052,0.2295,0.2567,0.2703,0.3058,0.3444,0.3565,0.382,0.3723,0.3848,0.3891,0.3417,0.3338,0.3582,0.3539,0.4044,0.4048,0.4051,0.4054,0.4056,0,0.1026,0.1214,0.1295,0.1467,0.1618,0.1671,0.1871,0.1958,0.2167,0.2362,0.2567,0.2817,0.3005,0.3227,0.3255,0.3473,0.3557,0.3429,0.3407,0.3006,0.2964,0.314,0.3096,0.3492,0.3489,0.3487,0.3484,0,0.0919,0.0991,0.1171,0.1242,0.1357,0.1483,0.1511,0.1726,0.1838,0.2175,0.2362,0.2635,0.2831,0.2988,0.3079,0.2979,0.3375,0.319,0.3264,0.3259,0.2988,0.2946,0.3481,0.3481,0.348,0.3479,0.3478,0,0.072,0.0782,0.0981,0.1071,0.1125,0.1212,0.1461,0.1542,0.1783,0.1942,0.2203,0.231,0.2527,0.2454,0.2746,0.2636,0.2723,0.2725,0.2737,0.2747,0.2544,0.2403,0.2677,0.275,0.2743,0.2737,0.2732,0,0.0681,0.0756,0.0674,0.0857,0.097,0.1031,0.1129,0.1278,0.1435,0.166,0.1776,0.1977,0.1942,0.2067,0.2189,0.2223,0.2386,0.216,0.2456,0.2465,0.2389,0.2725,0.2317,0.2592,0.2656,0.2664,0.267,0,0.0592,0.0538,0.0589,0.0662,0.0751,0.0823,0.0943,0.1089,0.1254,0.1416,0.1668,0.1731,0.1863,0.1891,0.1868,0.1973,0.2242,0.1972,0.1977,0.2057,0.2631,0.2615,0.2664,0.2248,0.2257,0.2265,0.2609,0,0.0439,0.0497,0.0539,0.0566,0.0628,0.0747,0.082,0.0925,0.1072,0.1168,0.1402,0.1402,0.1574,0.1555,0.1511,0.1739,0.1757,0.168,0.1591,0.1805,0.1922,0.197,0.1372,0.137,0.1368,0.1367,0,0,0.0461,0.0404,0.0376,0.0415,0.0514,0.0582,0.0683,0.0721,0.0871,0.0987,0.1041,0.1244,0.1207,0.1309,0.1404,0.1341,0.1459,0.1372,0.1687,0.1722,0.1755,0.1878,0.1926,0.1363,0.1363,0.1362,0.1362,0,0.0338,0.0349,0.0344,0.0397,0.0511,0.0527,0.0597,0.0718,0.0823,0.0926,0.0982,0.1095,0.1121,0.1151,0.1157,0.13,0.1322,0.1348,0.1515,0.1664,0.1701,0.1735,0.1862,0.1907,0.1357,0.1358,0.1358,0,0.0285,0.028,0.0295,0.0321,0.0401,0.0456,0.0525,0.0654,0.0739,0.0717,0.0878,0.0912,0.0911,0.0979,0.1028,0.0982,0.1209,0.1062,0.1076,0.1151,0.1303,0.1346,0.1385,0.0881,0.0879,0.0877,0,0,0.0235,0.0212,0.028,0.0328,0.0371,0.0467,0.0518,0.0614,0.0693,0.0744,0.0791,0.0861,0.0884,0.0913,0.0919,0.0919,0.0986,0.1,0.1023,0.1041,0.1124,0.1281,0.1324,0.087,0.087,0.0869,0,0,0.0259,0.0279,0.0323,0.0348,0.0426,0.0488,0.0553,0.0626,0.0696,0.0778,0.0765,0.0773,0.0879,0.0847,0.0757,0.0919,0.0839,0.0851,0.0898,0.0925,0.0947,0.1049,0.0696,0,0,0,0,0,0.0258,0.0252,0.029,0.031,0.0376,0.0433,0.044,0.0577,0.0689,0.0718,0.0799,0.0761,0.0855,0.077,0.0743,0.0825,0.0773,0.079,0.0806,0.087,0.09,0.0925,0,0,0,0,0,0,0.0266,0.0283,0.0293,0.0348,0.0368,0.0429,0.0526,0.0554,0.0692,0.0723,0.0746,0.0754,0.0718,0.0776,0.0754,0.0835,0.0703,0.078,0.0794,0.0808,0.088,0.0905,0.0926,0,0,0,0,0,0.0274,0.0288,0.0379,0.0347,0.0364,0.0531,0.0532,0.0559,0.0671,0.0652,0.0672,0.0809,0.071,0.0702,0.0762,0.0849,0.0718,0.071,0.0789,0.0801,0.0811,0.0893,0,0,0,0,0,0,0.028,0.0244,0.0383,0.0393,0.0447,0.0535,0.0556,0.0561,0.0593,0.0618,0.0699,0.072,0.0702,0.0697,0.069,0.0863,0.073,0.0722,0.0717,0.0798,0.0807,0.0815,0,0,0,0,0,0,0.0241,0.0249,0.0386,0.0505,0.0527,0.0538,0.0558,0.0443,0.0589,0.063,0.0655,0.0708,0.0737,0.0692,0.0688,0.0498,0.0739,0.0731,0.0726,0.0723,0.0805,0.0812,0,0,0,0,0,0,0.0246,0.0253,0.0501,0.0517,0.0537,0.0623,0.0434,0.0492,0.0713,0.0621,0.0741,0.0753,0.0729,0.0726,0.0685,0.0495,0.0497,0.0739,0.0733,0.073,0.0727,0,0,0,0,0,0,0,0.025,0.0183,0.0368,0.0528,0.0546,0.0485,0.0483,0.0482,0.0716,0.0727,0.0738,0.0748,0.0783,0.0775,0.0766,0.0494,0,0,0.074,0.0736,0,0,0,0,0,0,0,0,0.0182,0.0183,0.0369,0.0373,0.0377,0.0484,0.0483,0.0482,0.0718,0.0727,0.0736,0.0744,0.0781,0.0774,0.0767,0,0,0,0,0,0,0,0,0,0,0,0,0,0,0,0.0369,0.0373,0,0.0484,0.0483,0.0482,0.0719,0.0726,0.0734,0.0741,0.0779,0.0773,0.0767,0,0,0,0,0,0,0,0,0,0,0,0,0,0,0,0,0,0,0,0,0,0,0,0,0,0,0,0,0,0,0,0,0,0,0,0,0,0,0,0,0,0,0,0,0,0,0,0,0,0,0,0,0,0,0,0,0,0,0,0,0,0,0,0,0,0,0,0,0]}],[{"header":{"parameterUnit":"kt","parameterCategory":2,"dx":1,"dy":1,"la1":30.253999710083008,"la2":30.299108505249023,"lo1":-89.0895004272461,"lo2":-89.04439544677734,"nx":28,"ny":28,"refTime":"2022-09-24T21:00:00:Z","depth":"2","parameterNumber":3,"parameterNumberName":"V-component_of_CURRENTS"},"data":[0.0961,0.1152,0.1279,0.1608,0.1731,0.2104,0.235,0.2764,0.2855,0.2904,0.2604,0.2202,0.1139,0.0441,-0.0171,-0.0472,-0.0513,-0.0495,-0.0354,-0.0363,-0.0354,-0.0847,-0.076,0,0,0,0,0,0.0888,0.1045,0.1177,0.1354,0.1546,0.1611,0.2034,0.2312,0.2669,0.2689,0.282,0.1911,0.1289,0.0523,-0.0284,-0.074,-0.0804,-0.08,-0.0871,-0.087,-0.0869,-0.0814,-0.088,-0.0881,-0.0881,-0.0881,0,0,0.0811,0.0905,0.097,0.11,0.1235,0.1565,0.1775,0.2044,0.2318,0.2526,0.2455,0.2313,0.1477,0.0512,0.0028,-0.0482,-0.0504,-0.0758,-0.0761,-0.0763,-0.0701,-0.0602,-0.0737,-0.0736,-0.0736,-0.0735,-0.0735,0,0.0772,0.0734,0.0831,0.0931,0.104,0.1285,0.1483,0.1614,0.1748,0.1869,0.2056,0.2033,0.1503,0.095,0.0236,-0.0107,-0.0551,-0.0636,-0.0565,-0.0778,-0.0681,-0.0674,-0.0654,-0.0845,-0.0845,-0.0845,-0.0845,-0.0845,0.0702,0.0723,0.0788,0.0843,0.0885,0.0999,0.1144,0.1225,0.1373,0.1451,0.155,0.1376,0.1347,0.0817,0.0221,-0.0302,-0.0361,-0.0626,-0.0722,-0.0578,-0.0573,-0.0554,-0.0536,-0.0844,-0.0844,-0.0844,-0.0844,0,0.068,0.0691,0.0753,0.0834,0.0882,0.0929,0.1084,0.119,0.1177,0.1285,0.1256,0.1147,0.0921,0.0545,0.0116,-0.0157,-0.0474,-0.0575,-0.0531,-0.0539,-0.0555,-0.0535,-0.0734,-0.0732,-0.0731,-0.073,-0.0729,0,0.0662,0.0702,0.078,0.0803,0.0893,0.0924,0.099,0.0997,0.1029,0.1113,0.091,0.0942,0.0512,0.0321,0.0,-0.0286,-0.0343,-0.054,-0.0555,-0.0582,-0.0571,-0.0547,-0.0527,-0.0703,-0.0702,-0.0701,-0.07,0,0.0641,0.0741,0.0781,0.0804,0.09,0.0894,0.0928,0.0911,0.0942,0.0845,0.0861,0.0622,0.0545,0.0228,-0.0042,-0.0071,-0.0356,-0.0407,-0.0507,-0.0498,-0.0588,-0.0578,-0.0699,-0.0699,-0.0698,-0.0698,-0.0698,0,0.0663,0.0738,0.0776,0.0887,0.0897,0.0899,0.0918,0.0903,0.0837,0.0777,0.0655,0.0558,0.0383,0.0265,-0.0042,0.0034,-0.0161,-0.0275,-0.0283,-0.0215,-0.0167,-0.0336,-0.0443,-0.032,-0.0317,-0.0314,-0.0311,0,0.066,0.0735,0.077,0.0813,0.0859,0.083,0.0827,0.0774,0.0708,0.0659,0.0506,0.0452,0.0323,0.0293,0.0134,0.0033,-0.0115,-0.0004,-0.0212,-0.0217,-0.0141,-0.0226,-0.0272,-0.0396,-0.0275,-0.0278,-0.0281,0,0.0663,0.0768,0.0759,0.08,0.0795,0.0799,0.0758,0.0718,0.0698,0.0548,0.0494,0.038,0.0303,0.0284,0.0246,0.0123,-0.0046,0.0073,0.0067,0.001,-0.0279,-0.0183,-0.0199,-0.0101,-0.0106,-0.011,-0.0252,0,0.074,0.0772,0.078,0.08,0.0792,0.0774,0.0723,0.0681,0.0577,0.0511,0.0422,0.0358,0.0303,0.0281,0.0261,0.0161,0.0166,0.0151,0.0137,0.0088,0.0043,0.002,0.0296,0.0296,0.0297,0.0297,0,0,0.0712,0.077,0.0763,0.0785,0.0765,0.0694,0.0687,0.0641,0.0544,0.0502,0.0436,0.0355,0.0317,0.0302,0.0275,0.0289,0.0234,0.0275,0.0141,0.0124,0.0108,0.006,0.0038,0.0297,0.0297,0.0298,0.0298,0,0.0749,0.077,0.0775,0.0768,0.0717,0.0698,0.0667,0.0593,0.0525,0.047,0.042,0.0359,0.034,0.0316,0.0307,0.0299,0.0243,0.03,0.0268,0.0148,0.0131,0.0115,0.0065,0.0045,0.0298,0.0298,0.0298,0,0.0744,0.0748,0.0733,0.0741,0.0706,0.0702,0.0618,0.056,0.0516,0.0474,0.0403,0.0374,0.0362,0.0349,0.0331,0.0333,0.0246,0.0313,0.0312,0.0289,0.0164,0.0146,0.013,0.0327,0.0327,0.0327,0,0,0.0756,0.0765,0.0729,0.0735,0.0725,0.0647,0.0612,0.0549,0.0499,0.047,0.042,0.0378,0.0363,0.0342,0.0339,0.0338,0.0285,0.0316,0.0314,0.0313,0.0291,0.0166,0.015,0.0327,0.0327,0.0327,0,0,0.0734,0.0706,0.0681,0.0706,0.0663,0.0608,0.0586,0.0514,0.0473,0.0434,0.0393,0.0383,0.0344,0.0346,0.035,0.0319,0.0325,0.0325,0.0313,0.0312,0.031,0.0282,0.0326,0,0,0,0,0,0.0683,0.0718,0.0697,0.069,0.0662,0.0636,0.0627,0.054,0.0459,0.0459,0.0403,0.0377,0.0342,0.0346,0.0347,0.0318,0.0329,0.0328,0.0328,0.0312,0.0311,0.0309,0,0,0,0,0,0,0.0681,0.0681,0.0693,0.0648,0.0636,0.0637,0.0562,0.0542,0.0458,0.0443,0.039,0.0379,0.0374,0.0345,0.0345,0.0318,0.0326,0.0328,0.0328,0.0328,0.0312,0.031,0.0309,0,0,0,0,0,0.0678,0.0677,0.0661,0.0645,0.0636,0.0527,0.0559,0.0542,0.0476,0.0443,0.0427,0.0396,0.0379,0.0372,0.0345,0.0317,0.0325,0.0326,0.0328,0.0328,0.0328,0.0311,0,0,0,0,0,0,0.0675,0.0682,0.0657,0.0648,0.0603,0.0523,0.0514,0.0542,0.0481,0.0462,0.0455,0.0445,0.0383,0.0377,0.0373,0.0317,0.0325,0.0325,0.0325,0.0328,0.0328,0.0328,0,0,0,0,0,0,0.0679,0.0678,0.0653,0.0606,0.0592,0.052,0.0512,0.053,0.0482,0.0501,0.0487,0.0451,0.0372,0.0381,0.0377,0.0409,0.0324,0.0325,0.0325,0.0325,0.0328,0.0328,0,0,0,0,0,0,0.0676,0.0674,0.0609,0.0598,0.0586,0.0496,0.0534,0.051,0.0437,0.0507,0.0425,0.042,0.0377,0.0372,0.0381,0.0415,0.0411,0.0324,0.0325,0.0325,0.0325,0,0,0,0,0,0,0,0.0673,0.0718,0.0687,0.0592,0.0581,0.0563,0.0563,0.0562,0.0436,0.0431,0.0426,0.0422,0.0323,0.0323,0.0324,0.042,0,0,0.0324,0.0325,0,0,0,0,0,0,0,0,0.0715,0.0717,0.0687,0.0684,0.0681,0.0563,0.0563,0.0562,0.0435,0.0431,0.0427,0.0424,0.0323,0.0323,0.0323,0,0,0,0,0,0,0,0,0,0,0,0,0,0,0,0.0687,0.0684,0,0.0563,0.0563,0.0562,0.0435,0.0431,0.0428,0.0425,0.0323,0.0323,0.0323,0,0,0,0,0,0,0,0,0,0,0,0,0,0,0,0,0,0,0,0,0,0,0,0,0,0,0,0,0,0,0,0,0,0,0,0,0,0,0,0,0,0,0,0,0,0,0,0,0,0,0,0,0,0,0,0,0,0,0,0,0,0,0,0,0,0,0,0,0]}]],[[{"header":{"parameterUnit":"kt","parameterCategory":2,"dx":1,"dy":1,"la1":30.253999710083008,"la2":30.299108505249023,"lo1":-89.0895004272461,"lo2":-89.04439544677734,"nx":28,"ny":28,"refTime":"2022-09-24T21:00:00:Z","depth":"4","parameterNumber":2,"parameterNumberName":"U-component_of_CURRENTS"},"data":[0.0021,0.0124,0.0218,0.0369,0.0464,0.0596,0.0681,0.0733,0.0758,0.0847,0.0859,0.0951,0.0975,0.0994,0.1028,0.104,0.0949,0.1137,0.1137,0.0977,0.0968,0.0959,0.0834,0,0,0,0,0,0.0039,0.0114,0.024,0.0403,0.0546,0.0617,0.0747,0.0774,0.0862,0.0917,0.0934,0.0987,0.1034,0.1039,0.1055,0.1079,0.1019,0.1097,0.0957,0.0971,0.0961,0.0842,0,0,0,0,0,0,0.0079,0.0138,0.0297,0.0427,0.0567,0.0667,0.0698,0.0771,0.0828,0.0927,0.0956,0.1003,0.1046,0.1058,0.1087,0.1103,0.103,0.0985,0.0974,0.0964,0.0876,0.0886,0.1096,0,0,0,0,0,0.0119,0.0204,0.0296,0.0469,0.0552,0.0645,0.0699,0.075,0.0785,0.0849,0.0916,0.0942,0.1037,0.1013,0.1077,0.1041,0.0955,0.1003,0.0994,0.0787,0.0793,0.0791,0.0773,0.0921,0.092,0.0919,0.0919,0,0.0173,0.0231,0.0412,0.0482,0.0522,0.0576,0.0623,0.0643,0.0678,0.0768,0.081,0.0888,0.0878,0.1001,0.0951,0.0968,0.0915,0.0979,0.0759,0.0775,0.0779,0.0763,0.0747,0.091,0.0911,0.0912,0.0913,0,0.0193,0.0293,0.0383,0.0487,0.052,0.0537,0.0587,0.0619,0.0624,0.0694,0.0692,0.0701,0.0746,0.0768,0.0784,0.0756,0.0787,0.0804,0.0729,0.0738,0.0739,0.0727,0.0897,0.09,0.0902,0.0905,0.0906,0,0.0252,0.0293,0.043,0.0455,0.0514,0.05,0.0533,0.0516,0.0542,0.0593,0.0524,0.0575,0.0525,0.0591,0.053,0.0602,0.0607,0.0556,0.0578,0.0426,0.0417,0.0436,0.0426,0.0504,0.0502,0.0501,0.0499,0,0.0263,0.0345,0.0416,0.0421,0.0474,0.0473,0.0468,0.0464,0.0482,0.0462,0.0486,0.0477,0.0506,0.0468,0.0459,0.0379,0.054,0.0459,0.0519,0.0525,0.0423,0.0415,0.0497,0.0497,0.0496,0.0496,0.0495,0,0.0268,0.0344,0.0408,0.0449,0.045,0.0453,0.0452,0.044,0.0445,0.041,0.04,0.0372,0.0396,0.0301,0.0357,0.0288,0.0273,0.029,0.0298,0.0339,0.0331,0.0375,0.0406,0.0404,0.0402,0.0401,0.0399,0,0.0259,0.0349,0.0362,0.0392,0.042,0.0386,0.0385,0.0372,0.0338,0.0333,0.0326,0.0316,0.0237,0.0214,0.0206,0.0219,0.0244,0.0168,0.0263,0.0269,0.0328,0.0366,0.0158,0.0375,0.0378,0.038,0.0381,0,0.0241,0.0328,0.0327,0.0357,0.0348,0.0346,0.0331,0.0332,0.0338,0.0265,0.0274,0.0239,0.02,0.0201,0.0178,0.0186,0.0219,0.0114,0.0115,0.0231,0.0295,0.0334,0.0353,0.0152,0.0153,0.0154,0.0364,0,0.0262,0.0302,0.0309,0.0354,0.0343,0.0332,0.0309,0.0283,0.0228,0.021,0.019,0.0175,0.0158,0.0134,0.0113,0.0124,0.0124,0.0091,0.0115,0.0104,0.0197,0.021,0.0051,0.0051,0.0051,0.0051,0,0,0.0228,0.029,0.0302,0.0327,0.0312,0.0287,0.0291,0.0276,0.0228,0.0219,0.0166,0.0136,0.0124,0.0169,0.0126,0.0116,0.0125,0.0088,0.009,0.0094,0.0098,0.0188,0.02,0.0051,0.0051,0.0051,0.0051,0,0.0243,0.0265,0.0305,0.03,0.0293,0.0288,0.0279,0.024,0.0217,0.0185,0.0174,0.0164,0.011,0.0134,0.0138,0.0113,0.012,0.0054,0.0063,0.0088,0.0093,0.0097,0.0185,0.0197,0.0051,0.0051,0.0051,0,0.0231,0.026,0.0271,0.03,0.0289,0.0293,0.0266,0.0243,0.0235,0.0225,0.0188,0.0168,0.0167,0.0147,0.0133,0.0137,0.0136,0.0099,0.0097,0.0114,0.0142,0.0146,0.0149,0.0116,0.0117,0.0117,0,0,0.0244,0.0282,0.028,0.0298,0.0294,0.0273,0.0262,0.0245,0.0231,0.0226,0.0199,0.0175,0.0173,0.0165,0.0153,0.014,0.0178,0.0109,0.0106,0.0104,0.0119,0.0146,0.0148,0.0119,0.0119,0.0119,0,0,0.023,0.0257,0.0263,0.0291,0.0281,0.0261,0.0253,0.0235,0.0229,0.0216,0.021,0.0209,0.0187,0.0178,0.0204,0.0142,0.015,0.0146,0.0163,0.0159,0.0156,0.018,0.02,0,0,0,0,0,0.0235,0.0258,0.0264,0.0267,0.0278,0.0267,0.0265,0.0243,0.022,0.0225,0.0212,0.0206,0.0181,0.0205,0.0205,0.0178,0.0142,0.0138,0.0134,0.0152,0.0148,0.0144,0,0,0,0,0,0,0.0236,0.0243,0.0262,0.0248,0.0248,0.0267,0.0248,0.0243,0.022,0.0217,0.0209,0.0207,0.0209,0.0204,0.0205,0.0179,0.02,0.0141,0.0137,0.0134,0.0151,0.0147,0.0144,0,0,0,0,0,0.0236,0.0241,0.0274,0.0246,0.0247,0.0218,0.0248,0.0244,0.0229,0.022,0.0217,0.0209,0.0209,0.0208,0.0204,0.0178,0.0199,0.0199,0.0138,0.0136,0.0133,0.0149,0,0,0,0,0,0,0.0236,0.0242,0.0273,0.027,0.0237,0.0216,0.0218,0.0244,0.0234,0.023,0.0222,0.022,0.021,0.0209,0.0209,0.0177,0.0199,0.0199,0.0199,0.0136,0.0134,0.0132,0,0,0,0,0,0,0.0238,0.0241,0.0272,0.0262,0.0258,0.0215,0.0216,0.022,0.0235,0.0239,0.0235,0.0221,0.0206,0.021,0.0209,0.0217,0.0199,0.0199,0.0199,0.0199,0.0135,0.0133,0,0,0,0,0,0,0.0238,0.024,0.0263,0.026,0.0257,0.0229,0.0217,0.0233,0.0221,0.0241,0.0218,0.0217,0.0207,0.0206,0.021,0.0218,0.0217,0.0199,0.0199,0.0199,0.0199,0,0,0,0,0,0,0,0.0237,0.0238,0.0281,0.0258,0.0256,0.0241,0.0241,0.0242,0.022,0.0219,0.0218,0.0217,0.0198,0.0198,0.0199,0.0219,0,0,0.0199,0.0199,0,0,0,0,0,0,0,0,0.0235,0.0237,0.028,0.0279,0.0278,0.0241,0.0241,0.0241,0.022,0.0219,0.0219,0.0218,0.0198,0.0198,0.0199,0,0,0,0,0,0,0,0,0,0,0,0,0,0,0,0.028,0.0279,0,0.0241,0.0241,0.0241,0.022,0.0219,0.0219,0.0218,0.0198,0.0199,0.0199,0,0,0,0,0,0,0,0,0,0,0,0,0,0,0,0,0,0,0,0,0,0,0,0,0,0,0,0,0,0,0,0,0,0,0,0,0,0,0,0,0,0,0,0,0,0,0,0,0,0,0,0,0,0,0,0,0,0,0,0,0,0,0,0,0,0,0,0,0]}],[{"header":{"parameterUnit":"kt","parameterCategory":2,"dx":1,"dy":1,"la1":30.253999710083008,"la2":30.299108505249023,"lo1":-89.0895004272461,"lo2":-89.04439544677734,"nx":28,"ny":28,"refTime":"2022-09-24T21:00:00:Z","depth":"4","parameterNumber":3,"parameterNumberName":"V-component_of_CURRENTS"},"data":[0.0235,0.0256,0.0288,0.0332,0.036,0.0368,0.0353,0.0291,0.0252,0.0175,0.0069,-0.0033,-0.0236,-0.0162,-0.0456,-0.0503,-0.0587,-0.0821,-0.0823,-0.0963,-0.0966,-0.0968,-0.0953,0,0,0,0,0,0.0265,0.0268,0.0301,0.0311,0.0357,0.0354,0.0304,0.0244,0.0168,0.0145,0.005,-0.0041,-0.0258,-0.037,-0.0477,-0.0575,-0.0765,-0.0706,-0.082,-0.0965,-0.0968,-0.0952,0,0,0,0,0,0,0.0289,0.0298,0.0301,0.0312,0.033,0.0312,0.0258,0.0189,0.0127,-0.0015,-0.0006,-0.0186,-0.0296,-0.049,-0.0566,-0.068,-0.074,-0.0782,-0.0795,-0.08,-0.0759,-0.0726,-0.0639,0,0,0,0,0,0.0293,0.0283,0.0272,0.0299,0.0264,0.0228,0.0141,0.013,-0.002,-0.0091,-0.0169,-0.03,-0.0398,-0.0568,-0.0663,-0.0753,-0.0932,-0.0922,-0.0925,-0.0986,-0.098,-0.0991,-0.0993,-0.098,-0.098,-0.098,-0.098,0,0.0261,0.0274,0.024,0.0239,0.0184,0.0104,0.0046,-0.0103,-0.015,-0.0286,-0.0288,-0.0405,-0.0504,-0.0611,-0.0756,-0.0889,-0.0896,-0.0928,-0.0992,-0.0985,-0.0995,-0.0997,-0.0998,-0.0983,-0.0983,-0.0983,-0.0982,0,0.0236,0.0215,0.0206,0.0115,0.0081,0.0027,-0.0124,-0.018,-0.0318,-0.0377,-0.0407,-0.0567,-0.0646,-0.0765,-0.0852,-0.0911,-0.0962,-0.0956,-0.0959,-0.0969,-0.1002,-0.1003,-0.0987,-0.0986,-0.0985,-0.0985,-0.0984,0,0.0181,0.0161,0.0105,0.0086,0.0038,-0.01,-0.0192,-0.0308,-0.0444,-0.049,-0.0648,-0.0668,-0.0817,-0.086,-0.0924,-0.0962,-0.0968,-0.1007,-0.1015,-0.1042,-0.1042,-0.104,-0.104,-0.1037,-0.1037,-0.1037,-0.1037,0,0.0142,0.0078,0.0065,0.0023,-0.0102,-0.0173,-0.0275,-0.0447,-0.0512,-0.0655,-0.0692,-0.0796,-0.0823,-0.0883,-0.0938,-0.0971,-0.0991,-0.1033,-0.102,-0.1019,-0.104,-0.104,-0.1037,-0.1036,-0.1036,-0.1036,-0.1036,0,0.0059,0.0047,0.0017,-0.008,-0.0111,-0.0196,-0.036,-0.0455,-0.0615,-0.0685,-0.0769,-0.084,-0.0895,-0.0907,-0.0972,-0.0984,-0.1005,-0.1031,-0.1032,-0.1003,-0.102,-0.1026,-0.1052,-0.1052,-0.1053,-0.1053,-0.1053,0,0.0049,0.0026,-0.0054,-0.0128,-0.015,-0.0304,-0.039,-0.0526,-0.0634,-0.0735,-0.0799,-0.0869,-0.0908,-0.0936,-0.0959,-0.1015,-0.1016,-0.1013,-0.1046,-0.1046,-0.1001,-0.1016,-0.1044,-0.1053,-0.1053,-0.1053,-0.1053,0,0.0033,-0.0047,-0.0066,-0.0085,-0.0242,-0.0312,-0.0423,-0.0539,-0.0601,-0.0735,-0.0793,-0.0876,-0.0921,-0.0945,-0.0993,-0.1004,-0.1016,-0.1037,-0.1037,-0.1017,-0.1046,-0.1021,-0.1018,-0.1045,-0.1045,-0.1045,-0.1053,0,0.0025,-0.003,-0.0064,-0.0142,-0.0229,-0.0312,-0.0421,-0.053,-0.062,-0.0696,-0.0801,-0.0876,-0.0946,-0.097,-0.1002,-0.1028,-0.1048,-0.1055,-0.1027,-0.1051,-0.1056,-0.1055,-0.1059,-0.1059,-0.1059,-0.1059,0,0,0.0048,-0.0009,-0.0097,-0.0137,-0.0197,-0.0325,-0.0372,-0.0465,-0.0638,-0.069,-0.0721,-0.0872,-0.0918,-0.0969,-0.0992,-0.1033,-0.1051,-0.1019,-0.1053,-0.1052,-0.1051,-0.1056,-0.1055,-0.1058,-0.1058,-0.1058,-0.1058,0,0.0056,-0.0038,-0.0063,-0.0138,-0.0244,-0.0314,-0.035,-0.0487,-0.056,-0.0681,-0.0735,-0.0806,-0.0925,-0.0949,-0.0968,-0.1034,-0.1026,-0.1061,-0.1046,-0.1053,-0.1052,-0.1051,-0.1056,-0.1055,-0.1058,-0.1058,-0.1058,0,0.0079,0.0021,-0.0018,-0.0136,-0.0211,-0.0273,-0.0326,-0.0441,-0.0503,-0.0579,-0.0711,-0.0774,-0.0826,-0.0906,-0.0949,-0.0938,-0.1003,-0.1003,-0.1005,-0.0985,-0.0989,-0.099,-0.099,-0.0979,-0.0978,-0.0978,0,0,0.01,0.0039,-0.0055,-0.0137,-0.0173,-0.0282,-0.0344,-0.0417,-0.0524,-0.0583,-0.0667,-0.0744,-0.0798,-0.0845,-0.0909,-0.0985,-0.0978,-0.0991,-0.0995,-0.0998,-0.098,-0.0985,-0.0986,-0.0976,-0.0976,-0.0976,0,0,0.01,0.0009,-0.0022,-0.0112,-0.0204,-0.0319,-0.038,-0.0441,-0.0566,-0.059,-0.0649,-0.0674,-0.0773,-0.0804,-0.0777,-0.0874,-0.0862,-0.087,-0.0846,-0.0852,-0.0855,-0.0815,-0.0754,0,0,0,0,0,0.0086,0.0031,0.0005,-0.002,-0.0183,-0.0295,-0.0321,-0.0416,-0.0447,-0.0507,-0.0602,-0.0595,-0.0799,-0.0777,-0.0796,-0.0798,-0.0951,-0.0956,-0.096,-0.0948,-0.0953,-0.0958,0,0,0,0,0,0,0.0076,0.0046,0.0007,-0.0101,-0.0139,-0.0293,-0.0317,-0.0346,-0.0444,-0.0457,-0.058,-0.0596,-0.063,-0.0768,-0.0785,-0.0785,-0.0748,-0.0953,-0.0957,-0.096,-0.095,-0.0954,-0.0958,0,0,0,0,0,0.0067,0.0043,-0.0193,-0.0103,-0.0135,-0.0265,-0.0318,-0.0342,-0.0442,-0.0506,-0.0529,-0.0513,-0.0628,-0.0648,-0.0778,-0.0776,-0.0737,-0.0743,-0.0955,-0.0958,-0.0961,-0.0952,0,0,0,0,0,0,0.0061,0.0007,-0.0202,-0.0216,-0.0099,-0.0262,-0.0291,-0.0338,-0.0488,-0.051,-0.0435,-0.0442,-0.0627,-0.0643,-0.0658,-0.0771,-0.0727,-0.0734,-0.0738,-0.0958,-0.096,-0.0962,0,0,0,0,0,0,0.002,-0.0004,-0.021,-0.02,-0.0214,-0.0258,-0.0283,-0.0346,-0.0487,-0.041,-0.042,-0.0436,-0.0586,-0.0639,-0.0651,-0.0748,-0.072,-0.0726,-0.073,-0.0733,-0.0959,-0.0961,0,0,0,0,0,0,0.0008,-0.0013,-0.0197,-0.0208,-0.022,-0.0387,-0.0315,-0.0472,-0.0498,-0.0401,-0.05,-0.0501,-0.0579,-0.0595,-0.0646,-0.0737,-0.0745,-0.072,-0.0724,-0.0727,-0.0729,0,0,0,0,0,0,0,-0.0002,0.0162,-0.0112,-0.0215,-0.0226,-0.0341,-0.0345,-0.035,-0.0498,-0.0499,-0.05,-0.05,-0.0685,-0.0692,-0.0698,-0.0728,0,0,-0.0719,-0.0722,0,0,0,0,0,0,0,0,0.0168,0.0163,-0.0113,-0.0115,-0.0117,-0.0341,-0.0345,-0.0349,-0.0499,-0.0499,-0.05,-0.05,-0.0687,-0.0692,-0.0698,0,0,0,0,0,0,0,0,0,0,0,0,0,0,0,-0.0113,-0.0115,0,-0.0342,-0.0345,-0.0348,-0.0499,-0.0499,-0.0499,-0.05,-0.0688,-0.0693,-0.0697,0,0,0,0,0,0,0,0,0,0,0,0,0,0,0,0,0,0,0,0,0,0,0,0,0,0,0,0,0,0,0,0,0,0,0,0,0,0,0,0,0,0,0,0,0,0,0,0,0,0,0,0,0,0,0,0,0,0,0,0,0,0,0,0,0,0,0,0,0]}]]]